Dewpoint
57 57 57 56 55 53 52 52 52 51 51 51 51 51 50 50 50 49 49 49 49 49 49 49 49 49 49 48 48 48 48 48 48 49 49 49 43 48 53 59 65 66 65
56 56 56 55 53 52 51 51 51 51 50 50 49 49 48 48 48 48 47 47 47 48 48 48 47 47 47 46 46 46 46 46 45 46 46 41 39 45 53 63 65 66 66
55 55 54 53 52 51 50 50 50 50 49 48 48 47 46 46 45 46 46 46 46 46 46 46 46 45 44 43 43 44 43 43 45 41 39 38 38 46 57 63 63 65 66
53 53 53 51 49 49 49 49 48 48 47 46 45 45 44 44 43 44 43 44 44 45 44 44 44 43 42 42 41 42 42 43 40 38 36 38 42 53 60 62 63 64 65
52 52 51 50 49 48 48 48 47 46 45 44 43 43 43 43 42 42 42 42 42 43 43 43 42 41 41 41 41 41 41 42 35 29 34 41 50 54 60 59 61 61 63
52 51 51 50 48 47 47 46 46 45 43 43 43 42 42 41 41 40 41 41 42 42 43 41 41 40 39 38 39 39 39 39 31 26 29 41 44 51 55 55 56 56 60
51 51 51 50 48 47 46 45 45 45 42 42 41 41 41 40 40 40 40 40 41 41 41 39 39 38 37 36 37 37 37 35 27 25 27 34 42 46 49 50 51 52 54
51 51 51 50 47 46 44 43 43 44 41 41 40 40 39 39 39 39 39 39 40 39 39 38 38 36 36 35 35 35 34 32 24 25 27 29 43 44 45 46 47 49 50
51 51 51 50 47 45 44 41 43 41 39 39 39 38 36 38 38 38 38 38 38 37 37 36 36 35 34 33 34 34 32 29 24 24 26 28 40 42 43 43 44 46 47
51 51 50 50 48 45 43 42 43 40 38 36 37 35 35 37 36 37 36 35 36 36 36 35 34 33 32 32 33 32 30 26 23 24 26 29 37 41 41 41 42 45 46
49 50 49 49 47 44 41 42 41 38 37 35 33 33 32 33 35 35 34 33 34 33 34 33 32 31 29 29 30 30 29 24 23 24 26 36 36 38 39 39 40 43 46
44 47 45 39 41 41 33 35 35 34 33 32 31 30 31 31 35 34 32 31 32 32 32 31 31 30 28 26 26 27 26 25 24 25 26 38 35 37 37 37 38 40 44
39 40 38 36 36 33 32 32 34 33 33 32 30 30 30 30 31 32 30 29 28 32 30 29 29 28 27 27 26 25 26 26 26 26 27 38 32 35 36 36 36 37 39
38 38 38 36 35 34 33 32 32 32 32 31 31 30 29 29 30 31 30 29 28 29 29 29 29 28 27 27 25 25 26 26 26 27 28 37 31 34 34 34 41 42 39
36 37 37 36 35 33 31 31 33 33 31 31 31 30 30 29 30 30 30 29 28 29 29 28 28 27 26 25 24 25 26 26 26 27 28 36 34 34 33 32 36 37 38
36 36 37 36 34 34 31 30 31 31 31 30 31 30 30 29 29 29 29 28 28 29 30 28 27 27 25 24 24 25 26 25 25 26 26 28 32 35 34 32 33 33 35
36 36 35 35 34 32 32 30 31 31 30 29 30 30 30 30 29 29 29 28 28 29 29 28 27 26 24 23 24 25 26 25 24 25 25 24 27 28 32 36 36 36 37
36 35 36 35 33 33 33 32 30 30 31 30 30 29 29 30 28 28 28 28 28 29 29 27 26 23 22 22 23 24 25 25 24 23 22 22 23 24 26 32 36 38 38
35 35 34 34 33 31 30 33 31 28 29 29 29 28 28 30 29 28 28 29 28 28 28 27 25 24 22 22 22 23 24 23 23 24 22 22 21 22 24 26 31 34 37
33 33 30 30 28 27 26 26 27 28 29 28 28 28 28 29 29 28 29 29 27 27 27 25 25 24 23 24 23 22 24 24 21 24 22 23 21 23 23 24 25 28 36
32 28 27 26 27 26 25 24 24 24 25 27 28 29 29 29 29 29 29 28 26 27 26 25 24 23 22 25 22 21 24 23 21 21 23 22 22 23 24 24 25 31 36
31 28 26 26 25 25 25 25 25 24 25 25 26 28 30 30 30 29 28 26 26 26 26 25 24 24 24 25 23 22 18 19 19 21 23 22 22 23 24 24 25 33 34
29 27 26 26 25 25 25 25 25 25 25 24 24 27 29 29 28 27 26 26 27 27 26 26 25 25 24 25 26 21 16 16 19 22 22 21 22 23 24 25 25 28 33
28 27 26 25 24 24 24 24 24 24 23 25 24 26 28 27 26 26 25 27 27 27 25 25 26 25 25 25 26 25 26 25 20 18 19 21 22 22 23 24 25 27 29
28 27 27 25 24 24 24 24 23 23 24 24 24 24 25 26 25 25 26 27 27 26 25 25 25 26 26 26 26 27 25 24 24 22 18 19 20 21 23 24 25 26 27
28 27 26 25 25 24 24 23 22 22 21 21 22 22 22 23 24 24 26 27 26 25 25 24 23 23 25 25 24 25 27 24 22 23 21 20 19 20 22 23 24 24 26
Wind_Speed
9 11 11 11 11 12 13 14 16 17 16 17 17 18 18 18 19 20 20 20 20 20 20 20 20 20 20 20 20 20 19 18 19 20 20 21 22 20 17 17 16 15 13
14 12 12 12 12 13 14 15 16 16 16 16 16 16 16 17 17 17 18 19 19 19 19 19 20 20 20 20 20 20 20 21 20 19 20 21 20 19 19 17 13 16 9
15 13 12 12 13 13 14 16 16 16 16 15 14 14 15 14 15 16 17 17 17 17 17 17 19 19 20 20 20 20 21 22 22 23 20 16 16 18 18 14 13 13 11
16 13 12 13 13 14 15 15 15 15 15 14 13 12 13 13 14 15 16 15 15 16 16 17 18 18 19 19 19 20 21 21 23 24 16 14 15 15 15 14 16 12 10
15 13 13 14 14 15 15 15 15 14 15 13 12 12 13 14 14 15 16 16 16 17 17 18 18 19 20 20 19 19 20 20 23 22 17 15 15 12 17 20 18 18 17
14 12 15 14 14 15 14 14 14 15 16 14 14 14 15 15 15 15 16 17 17 17 18 19 19 20 20 19 19 19 19 20 21 19 18 18 19 14 16 18 19 19 17
15 12 13 14 14 15 14 13 13 14 16 15 15 15 16 16 16 16 17 17 18 19 19 19 19 20 19 19 18 18 18 18 17 18 17 18 18 15 16 17 19 20 19
16 13 11 13 12 14 13 11 12 13 16 16 16 17 17 17 17 17 17 17 19 18 19 19 20 20 20 20 19 18 18 18 17 16 16 16 16 15 15 17 19 19 19
13 13 10 9 10 11 11 9 13 13 16 17 16 16 16 15 16 17 17 18 18 18 19 19 20 20 20 19 19 19 19 19 17 14 14 14 14 14 14 16 19 19 17
12 12 10 7 7 7 5 9 13 13 15 17 16 16 15 16 17 17 18 19 17 19 19 20 20 20 21 19 19 19 19 18 17 13 13 13 14 14 14 15 17 17 17
10 10 8 6 6 5 7 11 13 14 15 16 16 16 15 14 13 16 18 19 18 19 18 20 20 20 21 18 20 20 19 12 14 12 11 14 14 12 13 13 15 17 16
12 10 7 5 9 9 10 12 13 12 12 13 13 13 12 15 14 13 17 19 19 20 18 20 21 21 19 13 13 16 12 15 12 13 12 17 14 13 11 12 13 15 14
17 12 11 13 15 15 12 11 11 11 11 11 12 13 13 13 13 12 14 15 14 15 13 14 14 13 16 15 15 14 14 14 13 12 13 16 12 11 10 11 12 12 12
16 16 14 15 15 13 11 10 11 11 9 9 10 11 12 12 13 11 13 14 14 13 14 14 13 14 15 16 16 16 16 15 14 13 14 15 12 12 8 10 12 17 14
19 14 14 14 14 13 12 10 10 10 9 8 8 8 9 11 11 11 12 13 14 14 13 14 13 14 15 16 15 15 16 17 17 13 13 17 15 14 12 13 15 17 17
19 17 14 13 12 12 10 9 9 11 9 8 6 6 7 9 10 12 12 13 15 13 12 14 15 14 14 15 16 15 15 15 15 16 14 14 20 20 18 16 18 19 17
19 17 15 13 11 11 9 9 9 11 9 7 6 4 6 8 9 10 10 12 12 12 12 13 13 12 13 15 15 14 13 15 14 15 15 15 16 20 20 19 19 19 17
19 19 13 10 11 9 5 7 8 10 8 6 4 2 5 7 7 8 8 9 10 13 11 11 14 14 14 14 15 13 13 11 13 14 14 15 15 15 17 21 19 18 22
18 17 14 11 10 10 10 8 7 8 7 4 2 2 3 5 6 8 7 9 10 11 11 9 11 12 15 17 15 12 10 9 12 12 15 15 16 15 14 19 21 21 21
17 15 14 12 13 12 10 10 9 8 6 3 1 2 4 7 6 7 7 8 9 9 10 10 8 10 7 14 14 12 8 2 12 13 13 12 15 15 16 16 15 16 21
16 18 15 16 9 9 6 5 7 7 5 6 6 7 5 6 6 9 8 8 10 8 6 10 7 10 8 14 10 11 6 5 7 11 10 12 16 16 15 16 14 13 14
17 16 16 15 13 11 7 4 4 6 8 7 9 12 11 12 12 10 9 9 10 6 7 10 10 7 5 9 8 5 8 6 5 9 10 13 14 14 15 16 16 15 12
18 17 17 15 14 12 9 8 7 7 6 8 10 9 12 11 11 11 9 10 9 5 8 7 10 10 8 6 9 2 4 4 15 6 8 13 14 14 14 14 15 15 13
17 16 17 16 15 11 10 12 13 10 8 5 5 5 8 10 11 10 11 10 8 6 10 9 9 7 7 10 8 3 4 6 4 9 9 8 13 14 15 14 14 14 14
18 17 16 16 13 11 12 13 13 12 8 6 7 9 7 7 9 9 9 7 7 7 9 10 12 11 6 4 9 6 4 5 6 6 12 18 14 11 12 12 13 12 12
16 17 16 15 12 11 12 12 13 10 8 8 8 7 7 6 6 9 7 5 6 9 9 10 12 12 9 8 10 9 8 4 6 7 10 14 14 11 16 11 11 11 11
Wind_Direction
143 127 114 100 89 80 69 62 55 50 47 44 41 36 34 32 30 26 23 19 15 13 11 10 8 5 4 0 357 354 353 352 347 341 334 334 328 323 323 322 326 307 276
129 116 115 106 93 80 75 66 59 52 46 44 43 40 36 34 31 29 25 20 15 12 10 9 6 4 3 0 357 354 354 352 351 345 342 334 328 324 327 323 343 343 266
117 110 112 101 88 81 72 64 58 53 47 42 40 39 37 35 33 29 25 22 17 13 13 11 8 6 4 1 359 358 356 355 354 354 342 330 325 326 324 347 349 344 347
118 115 110 102 90 81 74 68 63 55 48 44 39 39 35 33 31 28 23 21 19 14 16 12 11 8 6 5 1 1 1 359 4 355 348 335 326 325 337 9 15 1 348
119 124 117 109 93 84 80 74 68 62 51 45 37 35 34 30 26 28 17 18 17 15 17 14 12 12 10 6 4 3 1 5 4 358 349 343 338 323 21 16 13 13 8
128 130 120 112 96 87 85 84 75 63 47 41 40 34 32 27 26 27 16 18 17 14 17 14 14 12 10 7 4 5 1 2 4 354 347 345 346 347 1 7 2 2 2
140 138 125 119 105 94 90 87 79 64 48 43 39 35 31 27 26 26 19 18 20 14 12 13 15 8 9 5 2 3 1 2 8 353 347 343 336 352 348 358 357 354 358
145 141 132 123 109 101 95 94 85 65 49 46 41 38 29 28 26 25 21 20 19 14 14 11 11 7 6 3 4 1 2 360 6 352 345 343 337 346 347 348 342 346 350
152 137 128 121 120 110 110 89 83 68 54 50 47 43 33 30 29 26 26 22 17 13 12 12 8 6 6 1 2 6 4 358 357 345 342 333 330 336 339 346 341 335 333
139 131 134 134 124 110 71 60 88 74 62 53 51 45 43 37 35 30 33 15 21 16 14 11 8 7 5 4 3 359 2 358 346 342 333 329 331 330 333 344 342 334 331
131 138 141 148 138 118 71 84 90 80 72 63 53 47 44 34 34 29 22 24 19 20 15 11 8 8 6 3 1 356 356 344 338 336 328 329 331 325 327 337 341 334 324
147 154 141 122 145 123 101 102 100 94 81 71 60 48 46 40 40 39 24 27 20 21 17 11 9 9 1 351 348 350 341 336 339 337 332 330 338 315 335 335 336 338 327
140 132 134 121 119 123 127 123 116 99 87 76 63 52 47 42 36 30 23 17 14 11 7 4 4 360 356 352 350 345 341 339 333 329 328 333 338 334 334 332 333 340 326
144 140 136 125 125 132 125 111 120 108 95 83 69 56 52 44 35 31 23 15 15 7 10 7 5 3 359 352 348 344 343 343 335 327 328 339 344 326 343 337 333 337 326
142 140 139 136 133 138 120 116 123 124 109 104 87 64 59 52 43 36 27 18 15 11 17 12 8 7 358 351 345 347 346 348 345 350 354 357 20 7 350 338 335 331 335
147 147 149 143 136 139 126 123 127 136 128 112 105 82 69 63 53 42 33 20 14 13 16 19 9 6 357 350 345 346 349 352 354 4 12 11 22 18 5 353 337 325 327
156 151 148 141 136 132 141 122 137 150 134 124 116 89 76 65 60 49 38 21 12 19 20 20 8 2 359 351 347 344 353 353 359 13 19 14 8 11 11 6 356 344 335
149 148 147 139 118 116 135 144 133 152 144 125 124 90 69 69 68 53 39 25 16 27 25 21 11 3 356 354 340 341 351 358 5 19 16 19 10 3 357 1 0 353 347
145 141 131 125 115 109 92 106 121 135 129 127 140 59 42 52 56 46 31 16 24 29 29 15 9 5 358 351 340 336 344 7 26 20 16 15 8 1 352 352 356 352 354
134 125 120 111 113 108 99 89 86 95 112 114 125 338 8 25 38 33 31 20 30 32 26 15 358 354 345 343 333 331 330 31 35 20 10 9 6 358 349 348 346 341 344
128 126 117 109 104 103 77 79 72 92 104 71 27 354 23 28 41 42 34 27 26 33 27 20 349 349 347 356 344 340 330 292 22 356 4 4 3 353 346 344 342 339 335
136 123 111 104 91 82 84 88 108 106 84 68 50 45 62 63 52 48 40 22 17 19 24 15 12 353 341 10 3 327 349 337 331 328 344 3 357 343 343 343 334 340 353
134 128 118 105 94 87 93 95 87 77 61 48 38 49 44 55 52 46 33 24 16 54 19 357 6 12 351 337 0 11 340 335 321 311 333 347 352 337 331 335 334 332 352
136 125 114 105 98 90 87 82 82 78 81 59 56 58 55 47 44 32 32 32 52 36 17 359 1 357 358 339 328 207 246 257 303 315 321 316 340 329 325 329 328 332 346
135 126 114 106 101 95 85 85 89 85 79 67 51 55 44 38 34 21 32 60 33 18 6 6 1 354 345 321 329 308 278 289 261 285 310 323 332 329 314 316 317 332 346
126 122 120 114 105 96 90 86 89 83 74 62 46 38 18 14 7 24 26 41 18 8 5 2 352 343 331 327 320 318 301 290 289 298 299 315 315 318 315 310 318 337 344